Halifax, Nova Scotia

1:33 PM ADT on July 27, 2016 (GMT -0300)
Halifax International

Weather History for CYHZ - September, 2013

Change the Weather History Date:

Wednesday, September 25, 2013

  Actual Average Record
Temperature  
Mean Temperature 50 °F -  
Max Temperature 55 °F 57 °F 75 °F (2011)
Min Temperature 44 °F 40 °F 37 °F (1997)
Degree Days  
Heating Degree Days 16    
Moisture  
Dew Point 48 °F    
Average Humidity 95    
Maximum Humidity 100    
Minimum Humidity 82    
Precipitation  
Precipitation 0.08 in 0.16 in - ()
Sea Level Pressure  
Sea Level Pressure 29.73 in    
Wind  
Wind Speed 7 mph ()    
Max Wind Speed 13 mph    
Max Gust Speed 20 mph    
Visibility 9.7 miles    
Events Rain    
Averages and records for this station are not official NWS values.
T = Trace of Precipitation, MM = Missing Value Source: Averaged Metar Reports

Daily Weather History Graph

Daily Weather History Graph

Search for Another Location

Airport or City:

Trip Planner

Search our weather history database for the weather conditions in past years. The results will help you decide how hot, cold, wet, or windy it might be!

Date:

Astronomy

Sep. 25, 2013 Rise Set
Actual Time 7:04 AM ADT 7:05 PM ADT
Civil Twilight 6:35 AM ADT 7:34 PM ADT
Nautical Twilight 6:01 AM ADT 8:08 PM ADT
Astronomical Twilight 5:26 AM ADT 8:43 PM ADT
Moon 10:54 PM ADT (9/25) 1:20 PM ADT (9/25)
Length of Visible Light 12h 58m
Length of Day
12h 00m
Waning Gibbous, 64% of the Moon is Illuminated
Sep 25
Waning Gibbous
Sep 27
Last Quarter
Oct 4
New
Oct 11
First Quarter
Oct 18
Full

Hourly Weather History & Observations

Time (ADT) Temp. Windchill Dew Point Humidity Pressure Visibility Wind Dir Wind Speed Gust Speed Precip Events Conditions
12:00 AM 46.4 °F 43.5 °F 46.4 °F 100% 29.74 in 12.0 mi NNW 5.8 mph - N/A Rain Light Rain Showers
12:37 AM 46.4 °F 42.9 °F 44.6 °F 93% 29.74 in 8.0 mi North 6.9 mph - N/A Rain Light Rain Showers
1:00 AM 46.4 °F 42.9 °F 44.6 °F 93% 29.73 in 6.0 mi North 6.9 mph - N/A Rain Light Rain Showers
1:27 AM 46.4 °F 42.4 °F 44.6 °F 93% 29.73 in 2.5 mi NNW 8.1 mph - N/A Rain Light Rain Showers
2:00 AM 46.4 °F 42.9 °F 44.6 °F 93% 29.73 in 2.5 mi North 6.9 mph - N/A Rain Light Rain Showers
3:00 AM 45 °F - 45 °F 99% 29.72 in 1 mi North 5.8 mph - - Rain Light Rain Showers
3:00 AM 44.6 °F 41.4 °F 44.6 °F 100% 29.72 in 1.5 mi North 5.8 mph - N/A Rain Light Rain Showers
4:00 AM 44.6 °F 40.2 °F 44.6 °F 100% 29.71 in 2.0 mi NNW 8.1 mph - N/A Rain Light Rain Showers
5:00 AM 44.6 °F 40.7 °F 44.6 °F 100% 29.71 in 12.0 mi NNW 6.9 mph - N/A   Overcast
5:31 AM 44.6 °F 41.4 °F 44.6 °F 100% 29.72 in 12.0 mi NNW 5.8 mph - N/A Rain Light Rain Showers
6:00 AM 44.6 °F 41.4 °F 44.6 °F 100% 29.72 in 12.0 mi NNW 5.8 mph - N/A Rain Light Rain Showers
7:00 AM 44.6 °F 40.7 °F 44.6 °F 100% 29.72 in 3.0 mi NNW 6.9 mph - N/A Rain Light Rain Showers
8:00 AM 46.4 °F 42.4 °F 44.6 °F 93% 29.73 in 3.0 mi NW 8.1 mph - N/A Rain Light Rain Showers
8:48 AM 46.4 °F 42.9 °F 46.4 °F 100% 29.73 in 3.0 mi NNW 6.9 mph - N/A Rain Light Rain Showers
9:00 AM 47 °F - 46 °F 95% 29.73 in 3 mi NNW 6.9 mph - - Rain Light Rain Showers
9:00 AM 46.4 °F 42.4 °F 46.4 °F 100% 29.73 in 3.0 mi NNW 8.1 mph - N/A Rain Light Rain Showers
10:00 AM 48.2 °F - 46.4 °F 93% 29.74 in 6.0 mi NNW 10.4 mph - N/A Rain Light Rain
10:13 AM 48.2 °F - 46.4 °F 93% 29.74 in 10.0 mi NNW 10.4 mph - N/A Rain Light Rain
11:00 AM 50.0 °F - 48.2 °F 94% 29.73 in 12.0 mi NNW 8.1 mph - N/A   Overcast
12:00 PM 51.8 °F - 48.2 °F 88% 29.73 in 15.0 mi NNW 9.2 mph - N/A   Mostly Cloudy
1:00 PM 53.6 °F - 48.2 °F 82% 29.72 in 15.0 mi NW 9.2 mph - N/A   Mostly Cloudy
1:17 PM 51.8 °F - 50.0 °F 94% 29.72 in 15.0 mi NW 10.4 mph - N/A Rain Light Rain Showers
2:00 PM 53.6 °F - 48.2 °F 82% 29.70 in 15.0 mi North 12.7 mph - N/A   Mostly Cloudy
3:00 PM 53 °F - 49 °F 84% 29.72 in 7 mi NNW 9.2 mph - - Rain Light Rain Showers
3:00 PM 53.6 °F - 50.0 °F 88% 29.72 in 8.0 mi NW 12.7 mph - N/A Rain Light Rain Showers
3:10 PM 51.8 °F - 50.0 °F 94% 29.72 in 6.0 mi NNW 11.5 mph 19.6 mph N/A Rain Rain Showers
3:26 PM 51.8 °F - 51.8 °F 100% 29.72 in 15.0 mi NNW 5.8 mph - N/A Rain Light Rain Showers
4:00 PM 53.6 °F - 51.8 °F 94% 29.71 in 15.0 mi North 4.6 mph - N/A Rain Light Rain Showers
5:00 PM 51.8 °F - 50.0 °F 94% 29.71 in 15.0 mi NW 9.2 mph - N/A   Mostly Cloudy
5:30 PM 53.6 °F - 51.8 °F 94% 29.71 in 15.0 mi NW 10.4 mph - N/A   Mostly Cloudy
6:00 PM 53.6 °F - 50.0 °F 88% 29.72 in 15.0 mi NW 11.5 mph - N/A   Mostly Cloudy
7:00 PM 51.8 °F - 50.0 °F 94% 29.73 in 15.0 mi NNW 8.1 mph - N/A   Mostly Cloudy
8:00 PM 50.0 °F - 50.0 °F 100% 29.74 in 15.0 mi NNW 10.4 mph - N/A   Mostly Cloudy
9:00 PM 49 °F - 49 °F 98% 29.74 in 15 mi NNW 9.2 mph - -   Partly Cloudy
9:00 PM 50.0 °F - 48.2 °F 94% 29.74 in 15.0 mi NNW 9.2 mph - N/A   Scattered Clouds
10:00 PM 50.0 °F - 50.0 °F 100% 29.75 in 15.0 mi NW 8.1 mph - N/A Rain Light Rain Showers
11:00 PM 51.8 °F - 50.0 °F 94% 29.75 in 15.0 mi NNW 12.7 mph - N/A Rain Light Rain Showers